SCP
-0 -0 -0 -0 -0 0 0 0 0 0 0 0 0 -0 -0 -0 -0 -0 -0 -0 -0 -0 -0 -0 -0 -0 -0 -0 -0 0 0 0 -0 -0 -0 0 0 0 0 0 0 -0 -0 -0 -0 -0 -0
-0 -0 0 0 0 0 -0 -0 -0 -0 -0 0 0 0 -0 -0 -0 -0 -0 -0 -0 -0 -0 -0 -0 -0 -0 -0 -0 0 0 0 -0 -0 -0 0 0 0 0 0 0 0 0 0 -0 -0 0
0 0 0 0 0 0 0 0 0 0 -0 0 0 0 0 0 0 -0 -0 -0 -0 -0 -0 -0 -0 -0 -0 -0 0 0 0 0 -0 -0 0 0 0 0 0 0 0 -0 0 -0 -0 -0 -0
0 0 0 0 0 0 0 0 0 0 0 0 0 0 0 0 -0 -0 -0 -0 -0 -0 -0 -0 0 -0 0 0 0 0 0 0 0 0 0 0 0 0 0 0 -0 -0 -0 -0 -0 -0 -0
0 0 0 0 0 0 0 0 0 0 0 0 0 0 0 -0 -0 -0 -0 -0 0 -0 -0 -0 -0 0 0 0 -0 0 0 -0 -0 0 0 0 0 0 0 -0 -0 -0 -0 -0 0 -0 0
0 0 0 0 0 0 0 0 0 0 0 -0 -0 -0 -0 -0 -0 -0 -0 -0 0 -0 -0 -0 -0 -0 -0 -0 -0 0 0 0 -0 -0 0 0 0 -0 -0 -0 -0 0 -0 0 -0 0 -0
0 0 0 0 0 0 0 0 0 0 0 -0 -0 -0 -0 -0 -0 -0 -0 0 0 -0 -0 -0 0 0 0 0 0 -0 0 -0 0 0 0 -0 0 -0 -0 0 0 0 -0 0 0 0 0
0 0 0 0 0 0 0 0 0 0 -0 0 -0 -0 -0 -0 -0 -0 0 0 0 0 -0 -0 0 0 0 0 0 0 -0 -0 0 0 -0 0 -0 -0 0 0 0 0 0 0 0 0 0
0 0 0 0 0 0 0 0 0 0 0 0 -0 -0 -0 -0 -0 0 0 0 0 0 -0 -0 -0 -0 -0 0 -0 -0 -0 0 0 -0 -0 -0 -0 0 0 -0 0 -0 -0 0 0 0 0
0 0 0 0 0 0 0 0 0 0 0 0 0 -0 -0 -0 0 0 0 0 0 0 0 -0 -0 0 0 -0 -0 -0 -0 -0 -0 -0 -0 0 0 0 0 0 0 -0 0 0 0 0 -0
0 0 0 0 0 0 0 0 0 0 0 0 0 0 0 0 0 0 0 0 0 0 -0 -0 -0 -0 -0 -0 -0 -0 0 0 0 -0 -0 -0 0 0 0 -0 -0 -0 0 0 0 0 -0
0 0 0 0 0 0 0 0 0 0 0 0 0 0 0 -0 0 0 0 0 0 0 0 0 -0 -0 -0 0 -0 -0 -0 0 0 0 -0 -0 0 0 -0 -0 -0 0 0 -0 -0 -0 -0
0 0 0 0 0 0 0 0 0 0 0 0 0 0 0 0 0 0 0 0 0 0 0 0 -0 -0 -0 0 0 0 -0 -0 -0 -0 -0 -0 -0 -0 0 0 -0 -0 -0 -0 -0 -0 0
0 0 0 0 0 0 -0 -0 -0 -0 -0 -0 0 0 0 0 0 0 0 0 0 0 0 0 -0 -0 0 0 0 0 0 -0 -0 0 -0 -0 -0 -0 -0 -0 -0 -0 -0 -0 0 0 0
0 0 0 0 0 -0 -0 -0 -0 -0 -0 -0 -0 0 0 0 0 0 0 0 0 0 0 0 0 -0 0 0 0 0 -0 -0 0 -0 -0 -0 0 0 0 0 0 -0 -0 -0 -0 0 -0
0 0 0 0 0 0 -0 -0 -0 -0 -0 -0 0 0 0 0 0 0 0 0 0 0 0 0 0 0 -0 -0 -0 -0 0 -0 0 0 0 0 0 0 0 0 -0 -0 0 0 0 0 -0
-0 0 0 0 0 0 -0 -0 -0 -0 -0 -0 0 0 0 0 0 0 0 -0 0 0 0 0 -0 0 0 -0 0 -0 -0 0 0 0 0 -0 0 0 0 -0 0 0 -0 0 -0 0 0
-0 0 0 0 0 0 0 -0 -0 -0 -0 0 0 0 0 0 0 0 0 0 0 0 0 0 0 0 0 0 0 0 -0 0 0 0 0 0 -0 0 0 0 0 0 0 -0 -0 0 0
-0 0 0 -0 0 0 0 -0 -0 0 0 0 0 0 0 0 0 0 0 0 0 0 0 0 0 0 0 0 0 0 0 0 0 0 0 0 -0 0 0 0 0 0 -0 0 -0 0 0
-0 0 0 -0 -0 -0 -0 0 0 0 0 0 0 0 0 0 0 0 0 0 0 0 0 0 0 0 0 0 0 0 0 0 0 0 0 0 -0 0 0 0 0 0 0 0 0 -0 0
-0 0 0 -0 -0 -0 -0 -0 0 0 0 0 0 0 0 0 0 0 0 0 0 0 0 0 0 0 0 0 0 0 0 0 0 0 0 0 -0 0 0 -0 0 -0 0 0 0 0 0
-0 0 0 -0 -0 -0 -0 -0 -0 -0 -0 0 0 0 0 0 0 0 0 0 0 0 0 0 0 0 0 0 0 0 0 0 0 0 0 0 0 0 0 0 0 0 0 0 0 0 0
-0 0 0 -0 -0 -0 -0 -0 -0 -0 -0 0 0 0 0 0 0 0 -0 0 0 0 0 0 0 0 0 0 0 0 0 0 0 0 0 0 0 0 0 0 0 0 0 0 0 0 0
-0 0 0 0 -0 -0 -0 -0 -0 0 0 0 0 0 0 0 0 0 0 0 0 0 0 0 0 0 0 0 0 0 0 0 0 0 0 0 0 0 0 0 0 0 0 0 0 0 0
0 0 0 0 -0 -0 -0 -0 -0 -0 0 0 0 0 0 0 0 0 0 0 0 0 0 0 0 0 0 0 0 0 0 0 0 0 0 0 0 0 0 0 0 0 0 0 0 0 0
0 0 0 0 0 -0 -0 -0 -0 -0 -0 0 0 0 0 0 0 0 0 0 0 0 0 0 0 0 0 0 0 0 0 0 0 0 0 0 0 0 0 0 0 0 0 0 0 0 0
0 0 0 0 0 -0 -0 -0 -0 -0 0 0 0 0 0 0 0 0 0 0 0 0 0 0 0 0 0 0 0 0 0 0 0 0 0 0 0 0 0 0 0 0 0 0 0 0 0
0 0 0 0 0 -0 -0 -0 -0 -0 0 0 0 0 0 0 0 0 0 0 0 0 0 0 0 0 0 0 0 0 0 0 0 0 0 0 0 0 0 0 0 0 0 0 0 0 0
0 0 0 0 0 -0 -0 -0 0 0 0 0 0 0 0 0 0 0 0 0 0 0 0 0 0 0 0 0 0 0 0 0 0 -0 0 0 0 0 0 0 0 0 0 0 0 0 0
Wind_Speed_500mb
19 20 20 20 21 23 23 24 26 27 27 28 28 31 32 33 33 32 31 30 28 18 10 7 6 2 6 13 7 7 20 31 28 18 14 10 8 11 13 4 13 9 13 10 12 8 9
19 20 21 22 22 23 25 26 28 29 29 30 30 31 33 34 34 33 32 31 25 12 6 5 3 3 5 22 3 2 20 32 21 19 15 11 8 8 10 2 15 8 5 7 8 10 9
20 21 22 23 24 25 27 28 30 31 32 32 31 32 34 35 35 34 31 29 18 6 4 3 2 4 12 7 9 9 21 24 20 18 15 6 7 19 7 9 4 14 8 14 16 8 11
20 21 23 24 26 27 28 29 31 32 33 33 33 33 34 35 35 33 30 23 10 3 4 3 1 7 4 8 11 13 19 20 20 16 9 6 8 18 20 10 25 18 16 17 14 17 8
22 23 23 26 28 30 31 32 33 33 34 34 34 33 33 34 34 31 27 17 6 4 4 2 5 7 10 13 12 16 20 20 21 17 14 9 14 29 17 31 24 12 14 7 19 10 12
22 24 25 28 30 31 33 34 35 35 35 34 34 33 32 32 32 29 22 13 6 9 4 5 7 13 16 21 19 17 20 18 27 22 19 22 30 28 29 25 12 18 8 0 10 14 16
24 26 28 30 32 33 34 35 36 36 36 36 34 32 30 30 29 25 15 11 10 7 20 17 14 10 12 12 13 17 20 26 28 28 30 34 26 25 22 23 16 7 11 12 4 13 2
26 29 32 34 35 35 35 36 37 36 37 36 34 31 28 28 27 18 4 7 8 9 18 18 17 15 10 15 17 21 24 29 34 31 36 26 23 26 18 7 13 16 16 10 5 9 13
28 32 34 36 37 38 38 38 37 37 37 37 33 29 25 25 23 7 10 9 5 15 17 22 19 23 22 20 21 31 30 31 27 33 33 34 19 9 4 14 19 26 22 18 13 10 14
31 35 36 37 39 39 39 39 38 36 35 35 33 28 24 17 8 8 9 13 10 11 12 25 24 17 18 22 14 28 32 19 18 29 29 25 17 10 18 22 19 28 16 3 11 22 17
32 36 38 39 40 42 41 40 39 37 37 35 34 28 21 17 14 6 6 7 10 6 12 30 27 25 28 21 41 25 23 16 23 20 18 25 23 13 24 25 15 25 12 15 13 19 19
33 36 39 41 43 44 43 42 41 39 38 36 34 30 20 19 17 18 12 10 6 14 6 19 23 27 29 26 27 33 27 20 11 11 23 28 11 13 27 24 13 20 20 30 31 21 24
34 37 40 42 44 46 45 45 43 42 41 36 34 29 23 18 5 10 11 11 14 21 23 21 31 36 33 22 26 26 32 30 20 22 24 29 26 28 24 25 25 27 32 26 23 15 7
33 37 41 44 46 48 48 47 46 44 43 37 31 26 21 19 22 16 12 17 19 6 20 28 30 33 30 29 23 30 28 28 32 27 19 23 30 27 24 31 28 21 33 21 11 10 8
33 37 41 45 48 50 50 49 48 46 44 35 25 13 8 9 21 24 23 21 21 11 10 17 24 33 29 27 13 27 27 31 28 28 22 16 18 10 12 24 23 16 22 18 29 22 21
34 37 40 45 48 51 52 51 50 47 44 33 12 10 8 11 22 21 19 34 14 13 8 18 27 25 29 34 21 25 27 27 19 24 30 6 14 22 17 20 24 29 9 3 13 15 25
33 37 40 44 48 51 53 51 52 48 40 24 3 15 5 14 22 24 21 31 10 14 14 18 28 20 28 32 30 30 30 15 16 23 20 24 24 6 20 28 18 35 19 15 24 14 8
32 35 39 42 46 50 52 50 52 50 37 15 13 10 15 23 23 32 23 20 6 19 21 18 18 23 28 25 31 28 21 14 11 9 24 29 21 22 18 11 7 20 7 30 16 15 17
32 33 36 40 44 48 50 48 50 47 42 19 14 10 13 21 13 19 25 8 22 20 21 18 20 20 13 16 17 20 18 20 7 16 9 11 21 25 19 28 14 21 23 17 28 20 18
29 31 33 36 42 46 49 46 46 45 37 17 13 11 16 27 34 24 10 18 28 31 18 13 16 10 18 16 7 17 7 7 12 16 8 11 31 35 2 16 17 35 12 15 20 23 25
29 28 30 33 38 43 47 46 43 40 30 12 14 7 11 12 24 21 11 16 22 23 28 19 17 28 30 24 23 22 23 14 12 7 11 16 33 25 26 51 41 32 19 5 22 24 23
30 27 28 31 34 40 45 46 43 38 19 9 15 14 13 27 8 15 11 23 27 25 20 21 26 27 11 14 7 15 21 18 17 17 18 24 24 10 22 9 19 22 17 16 23 18 20
30 26 27 28 30 35 41 44 43 40 24 8 20 13 16 9 20 19 21 21 21 7 7 26 20 19 13 19 15 9 16 10 9 15 14 14 20 10 25 15 14 22 22 25 17 7 17
27 28 27 26 27 30 34 39 40 38 33 12 21 16 19 20 12 4 5 6 19 12 11 9 10 5 12 4 3 9 9 7 10 15 19 15 16 21 24 11 25 5 12 12 11 8 7
27 29 27 25 25 27 30 34 36 34 31 18 16 13 17 19 11 9 10 10 9 15 11 18 15 15 7 9 12 11 17 18 23 24 19 23 22 24 24 29 28 24 17 7 7 16 16
27 28 27 23 23 25 27 29 32 33 30 19 11 16 12 20 9 9 12 8 9 19 16 17 12 7 4 8 10 11 21 27 16 15 10 29 23 22 25 25 30 19 23 17 9 19 21
28 29 29 27 26 25 25 27 28 30 29 26 5 20 9 24 6 11 9 11 12 13 5 13 5 6 7 13 16 20 23 14 21 24 17 14 19 26 24 26 11 19 19 14 10 10 16
31 31 31 30 29 26 25 26 25 26 28 24 8 19 14 16 17 6 8 10 4 11 12 14 9 16 10 11 17 17 10 15 14 25 9 15 15 19 21 28 25 28 16 5 15 18 11
34 32 31 31 30 27 23 24 23 22 22 23 7 19 22 14 16 14 13 11 4 5 15 1 12 6 16 7 4 10 7 13 13 20 18 16 9 13 14 11 19 25 8 14 13 13 6
Wind_Direction_500mb
16 11 9 9 4 360 357 353 350 347 347 347 345 342 341 341 339 336 335 334 331 325 320 318 304 281 178 228 74 303 180 174 179 186 223 253 303 301 34 53 172 341 18 357 17 332 53
7 7 2 1 360 356 352 348 345 342 341 341 339 339 338 338 338 336 334 332 329 328 330 320 297 201 190 244 84 104 166 175 185 200 220 236 23 336 283 356 340 7 303 40 10 43 80
3 358 359 355 353 351 348 344 341 338 337 336 334 335 334 335 336 334 334 333 329 337 357 334 281 230 251 355 151 145 154 171 192 202 227 216 300 299 339 234 52 271 138 131 34 63 29
358 356 353 351 348 346 343 340 337 335 334 331 329 330 331 332 334 333 335 336 331 350 22 12 213 181 281 164 169 172 180 191 194 210 225 234 281 285 271 303 232 254 212 105 58 16 5
355 355 351 348 345 342 339 336 334 332 330 327 326 326 328 328 331 331 334 333 303 321 325 28 82 200 200 175 193 192 191 197 196 202 222 246 275 270 274 246 237 201 84 42 123 48 320
357 354 351 347 345 340 336 334 332 330 326 323 323 323 324 324 328 328 328 329 287 285 237 177 205 237 203 208 184 193 198 203 194 197 213 232 238 248 226 245 15 54 356 334 25 54 42
358 354 350 347 342 340 335 332 329 327 323 320 320 321 322 321 325 325 322 321 289 216 217 271 146 274 151 168 175 191 192 190 197 207 218 203 230 230 244 34 356 338 316 284 40 99 159
357 353 349 345 342 339 336 332 328 326 320 317 317 319 320 318 322 316 308 273 356 344 289 216 223 236 207 188 185 188 179 190 202 211 222 227 224 265 40 306 264 265 260 251 116 90 265
355 351 349 347 344 341 338 333 330 325 321 316 316 317 318 317 322 298 267 270 297 329 255 169 200 205 187 195 203 176 189 213 197 216 214 236 211 72 238 221 235 234 254 23 331 320 240
355 353 350 349 346 342 340 337 333 329 323 318 315 314 314 317 347 281 272 223 307 307 264 145 181 188 181 203 187 172 195 202 211 219 215 219 204 195 223 243 262 280 56 268 255 268 219
355 355 353 350 348 345 342 340 336 331 325 318 315 311 311 300 271 258 220 253 296 266 252 153 142 146 170 209 140 189 191 204 229 226 209 211 232 222 237 245 271 281 11 295 268 265 273
356 356 354 352 350 348 344 341 336 331 325 319 314 306 305 299 270 231 264 265 287 232 208 155 151 183 182 216 189 147 183 232 320 233 218 267 203 241 231 233 241 273 274 255 236 230 235
356 356 355 353 351 349 346 342 338 333 327 319 313 302 288 261 182 251 228 227 225 250 131 150 173 173 196 183 166 177 193 200 200 205 200 215 226 211 227 248 232 231 251 249 227 192 188
356 355 354 354 352 350 347 343 340 337 329 323 314 299 283 249 222 217 200 226 254 244 193 153 173 172 199 171 187 188 189 207 227 254 215 207 186 198 192 231 267 211 264 277 242 243 90
353 353 352 353 352 351 348 345 342 340 333 328 322 309 261 270 200 183 211 225 221 209 121 185 183 182 202 177 190 198 208 218 191 226 275 216 127 152 234 220 246 231 249 352 310 206 230
351 351 351 351 351 351 349 346 344 343 337 332 324 227 184 222 184 177 231 254 314 337 333 287 197 200 197 182 213 204 189 212 202 200 262 304 148 188 156 219 232 279 340 18 358 333 273
344 347 348 349 350 351 351 348 346 345 343 336 212 222 186 176 163 208 230 238 238 203 238 249 243 194 224 182 212 192 179 147 211 174 237 265 257 131 171 222 115 267 239 342 195 237 247
336 341 344 347 349 351 352 351 348 347 352 339 268 241 162 164 202 220 236 247 6 264 206 259 292 266 235 179 196 209 214 169 112 265 204 232 282 217 208 63 245 292 171 199 294 81 327
331 335 340 345 349 352 353 353 352 351 351 341 261 107 177 186 237 215 241 244 238 241 227 216 233 255 286 173 214 232 193 83 184 228 299 238 241 262 222 185 201 252 244 279 316 298 244
322 329 336 342 349 352 353 354 354 351 349 335 273 198 160 214 264 286 239 232 216 224 289 259 293 230 214 235 223 197 162 127 206 240 10 300 264 269 153 7 16 299 260 265 300 299 326
320 323 330 338 347 352 354 356 358 355 353 340 239 314 14 202 222 237 267 293 226 194 222 212 216 229 206 205 198 188 157 146 181 153 219 255 265 325 140 179 191 265 303 274 290 305 308
321 320 325 334 342 350 355 357 360 2 16 21 319 340 334 285 236 271 193 243 240 217 190 204 251 216 249 236 191 184 187 193 167 174 227 236 265 220 288 280 282 279 266 286 290 298 287
327 323 323 331 337 346 355 359 1 7 26 356 338 298 283 244 246 218 221 234 229 191 192 289 219 191 153 43 33 28 351 11 90 267 220 273 273 230 271 255 265 264 279 238 270 349 305
326 326 322 327 335 342 351 357 2 7 12 23 341 323 277 275 232 251 29 234 249 189 209 136 279 114 83 246 220 236 242 237 251 252 265 239 259 275 268 268 253 338 33 3 307 308 257
316 324 320 324 332 338 346 353 360 2 4 3 345 349 310 288 3 192 216 203 171 178 162 100 78 84 136 232 258 233 235 233 240 236 261 265 256 259 253 259 263 189 182 194 248 278 188
306 315 318 320 324 331 339 346 354 359 2 10 323 347 294 296 73 356 301 286 189 158 157 126 81 66 285 272 240 253 260 284 274 173 217 271 237 255 246 251 271 90 91 94 66 264 150
292 305 312 313 311 319 328 338 346 354 358 360 310 344 316 286 42 343 318 355 332 316 96 142 104 197 266 270 252 259 263 284 266 263 243 236 247 236 234 250 233 110 129 133 250 78 114
282 291 299 303 307 303 314 324 335 346 352 4 288 335 359 292 307 332 353 350 302 254 306 84 227 206 267 261 266 275 242 265 248 258 300 238 220 234 240 252 224 137 150 261 95 127 121
274 281 290 292 299 295 301 308 321 335 346 353 5 330 321 263 299 302 266 263 263 349 331 307 340 332 357 298 309 295 263 257 270 260 170 253 321 343 12 53 111 150 57 124 153 158 158
Wind_Speed_850mb
19 20 20 20 21 23 23 24 26 27 27 28 28 31 32 33 33 32 31 30 28 18 10 7 6 2 6 13 7 7 20 31 28 18 14 10 8 11 13 4 13 9 13 10 12 8 9
19 20 21 22 22 23 25 26 28 29 29 30 30 31 33 34 34 33 32 31 25 12 6 5 3 3 5 22 3 2 20 32 21 19 15 11 8 8 10 2 15 8 5 7 8 10 9
20 21 22 23 24 25 27 28 30 31 32 32 31 32 34 35 35 34 31 29 18 6 4 3 2 4 12 7 9 9 21 24 20 18 15 6 7 19 7 9 4 14 8 14 16 8 11
20 21 23 24 26 27 28 29 31 32 33 33 33 33 34 35 35 33 30 23 10 3 4 3 1 7 4 8 11 13 19 20 20 16 9 6 8 18 20 10 25 18 16 17 14 17 8
22 23 23 26 28 30 31 32 33 33 34 34 34 33 33 34 34 31 27 17 6 4 4 2 5 7 10 13 12 16 20 20 21 17 14 9 14 29 17 31 24 12 14 7 19 10 12
22 24 25 28 30 31 33 34 35 35 35 34 34 33 32 32 32 29 22 13 6 9 4 5 7 13 16 21 19 17 20 18 27 22 19 22 30 28 29 25 12 18 8 0 10 14 16
24 26 28 30 32 33 34 35 36 36 36 36 34 32 30 30 29 25 15 11 10 7 20 17 14 10 12 12 13 17 20 26 28 28 30 34 26 25 22 23 16 7 11 12 4 13 2
26 29 32 34 35 35 35 36 37 36 37 36 34 31 28 28 27 18 4 7 8 9 18 18 17 15 10 15 17 21 24 29 34 31 36 26 23 26 18 7 13 16 16 10 5 9 13
28 32 34 36 37 38 38 38 37 37 37 37 33 29 25 25 23 7 10 9 5 15 17 22 19 23 22 20 21 31 30 31 27 33 33 34 19 9 4 14 19 26 22 18 13 10 14
31 35 36 37 39 39 39 39 38 36 35 35 33 28 24 17 8 8 9 13 10 11 12 25 24 17 18 22 14 28 32 19 18 29 29 25 17 10 18 22 19 28 16 3 11 22 17
32 36 38 39 40 42 41 40 39 37 37 35 34 28 21 17 14 6 6 7 10 6 12 30 27 25 28 21 41 25 23 16 23 20 18 25 23 13 24 25 15 25 12 15 13 19 19
33 36 39 41 43 44 43 42 41 39 38 36 34 30 20 19 17 18 12 10 6 14 6 19 23 27 29 26 27 33 27 20 11 11 23 28 11 13 27 24 13 20 20 30 31 21 24
34 37 40 42 44 46 45 45 43 42 41 36 34 29 23 18 5 10 11 11 14 21 23 21 31 36 33 22 26 26 32 30 20 22 24 29 26 28 24 25 25 27 32 26 23 15 7
33 37 41 44 46 48 48 47 46 44 43 37 31 26 21 19 22 16 12 17 19 6 20 28 30 33 30 29 23 30 28 28 32 27 19 23 30 27 24 31 28 21 33 21 11 10 8
33 37 41 45 48 50 50 49 48 46 44 35 25 13 8 9 21 24 23 21 21 11 10 17 24 33 29 27 13 27 27 31 28 28 22 16 18 10 12 24 23 16 22 18 29 22 21
34 37 40 45 48 51 52 51 50 47 44 33 12 10 8 11 22 21 19 34 14 13 8 18 27 25 29 34 21 25 27 27 19 24 30 6 14 22 17 20 24 29 9 3 13 15 25
33 37 40 44 48 51 53 51 52 48 40 24 3 15 5 14 22 24 21 31 10 14 14 18 28 20 28 32 30 30 30 15 16 23 20 24 24 6 20 28 18 35 19 15 24 14 8
32 35 39 42 46 50 52 50 52 50 37 15 13 10 15 23 23 32 23 20 6 19 21 18 18 23 28 25 31 28 21 14 11 9 24 29 21 22 18 11 7 20 7 30 16 15 17
32 33 36 40 44 48 50 48 50 47 42 19 14 10 13 21 13 19 25 8 22 20 21 18 20 20 13 16 17 20 18 20 7 16 9 11 21 25 19 28 14 21 23 17 28 20 18
29 31 33 36 42 46 49 46 46 45 37 17 13 11 16 27 34 24 10 18 28 31 18 13 16 10 18 16 7 17 7 7 12 16 8 11 31 35 2 16 17 35 12 15 20 23 25
29 28 30 33 38 43 47 46 43 40 30 12 14 7 11 12 24 21 11 16 22 23 28 19 17 28 30 24 23 22 23 14 12 7 11 16 33 25 26 51 41 32 19 5 22 24 23
30 27 28 31 34 40 45 46 43 38 19 9 15 14 13 27 8 15 11 23 27 25 20 21 26 27 11 14 7 15 21 18 17 17 18 24 24 10 22 9 19 22 17 16 23 18 20
30 26 27 28 30 35 41 44 43 40 24 8 20 13 16 9 20 19 21 21 21 7 7 26 20 19 13 19 15 9 16 10 9 15 14 14 20 10 25 15 14 22 22 25 17 7 17
27 28 27 26 27 30 34 39 40 38 33 12 21 16 19 20 12 4 5 6 19 12 11 9 10 5 12 4 3 9 9 7 10 15 19 15 16 21 24 11 25 5 12 12 11 8 7
27 29 27 25 25 27 30 34 36 34 31 18 16 13 17 19 11 9 10 10 9 15 11 18 15 15 7 9 12 11 17 18 23 24 19 23 22 24 24 29 28 24 17 7 7 16 16
27 28 27 23 23 25 27 29 32 33 30 19 11 16 12 20 9 9 12 8 9 19 16 17 12 7 4 8 10 11 21 27 16 15 10 29 23 22 25 25 30 19 23 17 9 19 21
28 29 29 27 26 25 25 27 28 30 29 26 5 20 9 24 6 11 9 11 12 13 5 13 5 6 7 13 16 20 23 14 21 24 17 14 19 26 24 26 11 19 19 14 10 10 16
31 31 31 30 29 26 25 26 25 26 28 24 8 19 14 16 17 6 8 10 4 11 12 14 9 16 10 11 17 17 10 15 14 25 9 15 15 19 21 28 25 28 16 5 15 18 11
34 32 31 31 30 27 23 24 23 22 22 23 7 19 22 14 16 14 13 11 4 5 15 1 12 6 16 7 4 10 7 13 13 20 18 16 9 13 14 11 19 25 8 14 13 13 6
Wind_Direction_850mb
16 11 9 9 4 360 357 353 350 347 347 347 345 342 341 341 339 336 335 334 331 325 320 318 304 281 178 228 74 303 180 174 179 186 223 253 303 301 34 53 172 341 18 357 17 332 53
7 7 2 1 360 356 352 348 345 342 341 341 339 339 338 338 338 336 334 332 329 328 330 320 297 201 190 244 84 104 166 175 185 200 220 236 23 336 283 356 340 7 303 40 10 43 80
3 358 359 355 353 351 348 344 341 338 337 336 334 335 334 335 336 334 334 333 329 337 357 334 281 230 251 355 151 145 154 171 192 202 227 216 300 299 339 234 52 271 138 131 34 63 29
358 356 353 351 348 346 343 340 337 335 334 331 329 330 331 332 334 333 335 336 331 350 22 12 213 181 281 164 169 172 180 191 194 210 225 234 281 285 271 303 232 254 212 105 58 16 5
355 355 351 348 345 342 339 336 334 332 330 327 326 326 328 328 331 331 334 333 303 321 325 28 82 200 200 175 193 192 191 197 196 202 222 246 275 270 274 246 237 201 84 42 123 48 320
357 354 351 347 345 340 336 334 332 330 326 323 323 323 324 324 328 328 328 329 287 285 237 177 205 237 203 208 184 193 198 203 194 197 213 232 238 248 226 245 15 54 356 334 25 54 42
358 354 350 347 342 340 335 332 329 327 323 320 320 321 322 321 325 325 322 321 289 216 217 271 146 274 151 168 175 191 192 190 197 207 218 203 230 230 244 34 356 338 316 284 40 99 159
357 353 349 345 342 339 336 332 328 326 320 317 317 319 320 318 322 316 308 273 356 344 289 216 223 236 207 188 185 188 179 190 202 211 222 227 224 265 40 306 264 265 260 251 116 90 265
355 351 349 347 344 341 338 333 330 325 321 316 316 317 318 317 322 298 267 270 297 329 255 169 200 205 187 195 203 176 189 213 197 216 214 236 211 72 238 221 235 234 254 23 331 320 240
355 353 350 349 346 342 340 337 333 329 323 318 315 314 314 317 347 281 272 223 307 307 264 145 181 188 181 203 187 172 195 202 211 219 215 219 204 195 223 243 262 280 56 268 255 268 219
355 355 353 350 348 345 342 340 336 331 325 318 315 311 311 300 271 258 220 253 296 266 252 153 142 146 170 209 140 189 191 204 229 226 209 211 232 222 237 245 271 281 11 295 268 265 273
356 356 354 352 350 348 344 341 336 331 325 319 314 306 305 299 270 231 264 265 287 232 208 155 151 183 182 216 189 147 183 232 320 233 218 267 203 241 231 233 241 273 274 255 236 230 235
356 356 355 353 351 349 346 342 338 333 327 319 313 302 288 261 182 251 228 227 225 250 131 150 173 173 196 183 166 177 193 200 200 205 200 215 226 211 227 248 232 231 251 249 227 192 188
356 355 354 354 352 350 347 343 340 337 329 323 314 299 283 249 222 217 200 226 254 244 193 153 173 172 199 171 187 188 189 207 227 254 215 207 186 198 192 231 267 211 264 277 242 243 90
353 353 352 353 352 351 348 345 342 340 333 328 322 309 261 270 200 183 211 225 221 209 121 185 183 182 202 177 190 198 208 218 191 226 275 216 127 152 234 220 246 231 249 352 310 206 230
351 351 351 351 351 351 349 346 344 343 337 332 324 227 184 222 184 177 231 254 314 337 333 287 197 200 197 182 213 204 189 212 202 200 262 304 148 188 156 219 232 279 340 18 358 333 273
344 347 348 349 350 351 351 348 346 345 343 336 212 222 186 176 163 208 230 238 238 203 238 249 243 194 224 182 212 192 179 147 211 174 237 265 257 131 171 222 115 267 239 342 195 237 247
336 341 344 347 349 351 352 351 348 347 352 339 268 241 162 164 202 220 236 247 6 264 206 259 292 266 235 179 196 209 214 169 112 265 204 232 282 217 208 63 245 292 171 199 294 81 327
331 335 340 345 349 352 353 353 352 351 351 341 261 107 177 186 237 215 241 244 238 241 227 216 233 255 286 173 214 232 193 83 184 228 299 238 241 262 222 185 201 252 244 279 316 298 244
322 329 336 342 349 352 353 354 354 351 349 335 273 198 160 214 264 286 239 232 216 224 289 259 293 230 214 235 223 197 162 127 206 240 10 300 264 269 153 7 16 299 260 265 300 299 326
320 323 330 338 347 352 354 356 358 355 353 340 239 314 14 202 222 237 267 293 226 194 222 212 216 229 206 205 198 188 157 146 181 153 219 255 265 325 140 179 191 265 303 274 290 305 308
321 320 325 334 342 350 355 357 360 2 16 21 319 340 334 285 236 271 193 243 240 217 190 204 251 216 249 236 191 184 187 193 167 174 227 236 265 220 288 280 282 279 266 286 290 298 287
327 323 323 331 337 346 355 359 1 7 26 356 338 298 283 244 246 218 221 234 229 191 192 289 219 191 153 43 33 28 351 11 90 267 220 273 273 230 271 255 265 264 279 238 270 349 305
326 326 322 327 335 342 351 357 2 7 12 23 341 323 277 275 232 251 29 234 249 189 209 136 279 114 83 246 220 236 242 237 251 252 265 239 259 275 268 268 253 338 33 3 307 308 257
316 324 320 324 332 338 346 353 360 2 4 3 345 349 310 288 3 192 216 203 171 178 162 100 78 84 136 232 258 233 235 233 240 236 261 265 256 259 253 259 263 189 182 194 248 278 188
306 315 318 320 324 331 339 346 354 359 2 10 323 347 294 296 73 356 301 286 189 158 157 126 81 66 285 272 240 253 260 284 274 173 217 271 237 255 246 251 271 90 91 94 66 264 150
292 305 312 313 311 319 328 338 346 354 358 360 310 344 316 286 42 343 318 355 332 316 96 142 104 197 266 270 252 259 263 284 266 263 243 236 247 236 234 250 233 110 129 133 250 78 114
282 291 299 303 307 303 314 324 335 346 352 4 288 335 359 292 307 332 353 350 302 254 306 84 227 206 267 261 266 275 242 265 248 258 300 238 220 234 240 252 224 137 150 261 95 127 121
274 281 290 292 299 295 301 308 321 335 346 353 5 330 321 263 299 302 266 263 263 349 331 307 340 332 357 298 309 295 263 257 270 260 170 253 321 343 12 53 111 150 57 124 153 158 158